This is the latest recevied weather packets stored in our database for station/object YU7IBS-1. If no packets are shown the sender has not sent any weather packets the latest 10 day(s).
| Time | Temp. | Humidity | Pressure | Rain* | Wind** | Luminosity | Snow |
|---|---|---|---|---|---|---|---|
| 1787677458 | 27.78° C | 47% | 995 hPa | 0 mm | - | - | - |
| 1787676858 | 28.33° C | 47% | 994.8 hPa | 0 mm | - | - | - |
| 1787676257 | 28.33° C | 47% | 994.8 hPa | 0 mm | - | - | - |
| 1787675657 | 28.33° C | 47% | 995 hPa | 0 mm | - | - | - |
| 1787675058 | 28.89° C | 46% | 994.7 hPa | 0 mm | - | - | - |
| 1787674456 | 28.89° C | 45% | 994.7 hPa | 0 mm | - | - | - |
| 1787673858 | 28.89° C | 45% | 994.9 hPa | 0 mm | - | - | - |
| 1787673258 | 29.44° C | 44% | 995 hPa | 0 mm | - | - | - |
| 1787672656 | 29.44° C | 43% | 994.8 hPa | 0 mm | - | - | - |
| 1787672057 | 30° C | 42% | 994.7 hPa | 0 mm | - | - | - |
| 1787671458 | 30° C | 41% | 994.7 hPa | 0 mm | - | - | - |
| 1787670856 | 30.56° C | 41% | 994.7 hPa | 0 mm | - | - | - |
| 1787670257 | 30.56° C | 40% | 994.7 hPa | 0 mm | - | - | - |
| 1787669657 | 30.56° C | 40% | 994.7 hPa | 0 mm | - | - | - |
| 1787669057 | 31.11° C | 40% | 994.7 hPa | 0 mm | - | - | - |
| 1787668456 | 31.11° C | 39% | 994.7 hPa | 0 mm | - | - | - |
| 1787667858 | 31.11° C | 39% | 994.7 hPa | 0 mm | - | - | - |
| 1787667256 | 31.67° C | 38% | 994.7 hPa | 0 mm | - | - | - |
| 1787666656 | 31.67° C | 37% | 994.7 hPa | 0 mm | - | - | - |
| 1787666058 | 32.22° C | 37% | 994.7 hPa | 0 mm | - | - | - |
| 1787665458 | 31.67° C | 37% | 994.7 hPa | 0 mm | - | - | - |
| 1787664858 | 31.67° C | 37% | 994.7 hPa | 0 mm | - | - | - |
| 1787664258 | 32.22° C | 37% | 994.7 hPa | 0 mm | - | - | - |
| 1787663657 | 32.22° C | 37% | 994.7 hPa | 0 mm | - | - | - |
| 1787663058 | 32.22° C | 36% | 994.7 hPa | 0 mm | - | - | - |
* Rain latest hour (hover to see other rain measurements)
** Current wind speed in m/s (hover to see current wind gust speed)